Location: Elma
(49.8670°N, 95.9170°W)
Time: 21:27:13
(UTC-05:00)

ISS - Pass Details

Date: 29 March 2019
Orbit: 408 x 410 km, 51.6° (Epoch: 21 April)

Event Time Altitude Azimuth Distance (km) Brightness Sun altitude
Rises 21:49:25 0° 282° (WNW) 2,338 1.4 -18.9°
Reaches altitude 10° 21:51:31 10° 285° (WNW) 1,475 0.1 -19.1°
Maximum altitude 21:54:48 68° 8° (N) 445 -3.7 -19.6°
Enters shadow 21:55:00 65° 36° (NE) 453 -3.7 -19.6°
